[[{"header":{"parameterUnit":"m.s-1","parameterCategory":1,"la1":30.2991,"la2":30.254,"lo1":-89.0895,"lo2":-89.0444,"dy":0.0017,"dx":0.0017,"nx":28,"ny":28,"refTime":"2025-06-13T09:00:00:Z","depth":0,"parameterNumber":2,"parameterNumberName":"U-component_of_WINDS"},"data":[0,0,0,0,0,0,0,0,0,0,0,0,0,0,0,0,0,0,0,0,0,0,0,0,0,0,0,0,0,0,0,0,0,0,0,0,0,0,0,0,0,0,0,0,0,0,0,0,0,0,0,0,0,0,0,0,0,0,-0.1542,-0.1543,0,-0.1597,-0.1598,-0.1599,-0.1651,-0.1652,-0.1653,-0.1653,-0.1711,-0.1712,-0.1713,0,0,0,0,0,0,0,0,0,0,0,0,0,-0.1484,-0.1485,-0.1542,-0.1543,-0.1544,-0.1597,-0.1598,-0.1599,-0.1651,-0.1652,-0.1653,-0.1653,-0.1711,-0.1712,-0.1713,0,0,0,0,0,0,0,0,0,0,0,0,0,-0.1521,-0.1485,-0.1542,-0.1576,-0.158,-0.1597,-0.1598,-0.1599,-0.1651,-0.1652,-0.1653,-0.1654,-0.171,-0.1712,-0.1713,-0.1701,0,0,-0.1717,-0.1718,0,0,0,0,0,0,0,0,-0.1519,-0.1523,-0.1571,-0.1574,-0.1578,-0.1618,-0.1599,-0.1633,-0.1651,-0.1624,-0.1653,-0.1654,-0.1679,-0.1683,-0.1692,-0.1704,-0.1707,-0.1717,-0.1718,-0.1719,-0.1719,0,0,0,0,0,0,0,-0.1517,-0.1521,-0.1564,-0.1571,-0.1576,-0.1589,-0.1596,-0.1606,-0.1645,-0.1626,-0.163,-0.1636,-0.1682,-0.169,-0.1693,-0.1707,-0.1717,-0.1718,-0.1719,-0.172,-0.1715,-0.1714,0,0,0,0,0,0,-0.1509,-0.1519,-0.1562,-0.1566,-0.155,-0.159,-0.1597,-0.1604,-0.1645,-0.1653,-0.1635,-0.1638,-0.1687,-0.1692,-0.1695,-0.1686,-0.1719,-0.172,-0.1721,-0.1716,-0.1715,-0.1714,0,0,0,0,0,0,-0.1507,-0.1512,-0.156,-0.1543,-0.1551,-0.1589,-0.1598,-0.1605,-0.1614,-0.1652,-0.166,-0.1636,-0.1688,-0.1694,-0.17,-0.1688,-0.1721,-0.1722,-0.1717,-0.1715,-0.1714,-0.1665,0,0,0,0,0,0,-0.1505,-0.1511,-0.1507,-0.1543,-0.1551,-0.1563,-0.1597,-0.1605,-0.1616,-0.162,-0.1655,-0.1662,-0.1689,-0.1697,-0.1701,-0.1691,-0.1723,-0.1718,-0.1716,-0.1715,-0.1668,-0.1662,-0.1658,0,0,0,0,0,-0.1503,-0.1491,-0.1506,-0.1511,-0.1547,-0.1562,-0.1567,-0.1598,-0.1614,-0.1611,-0.1636,-0.1661,-0.1689,-0.1698,-0.1702,-0.1692,-0.1719,-0.1717,-0.1715,-0.1671,-0.1664,-0.1658,0,0,0,0,0,0,-0.1453,-0.1496,-0.1514,-0.1513,-0.1533,-0.1571,-0.1567,-0.159,-0.1606,-0.161,-0.1649,-0.1656,-0.1658,-0.1676,-0.1685,-0.1684,-0.1708,-0.1706,-0.1672,-0.1666,-0.1661,-0.1657,-0.1724,0,0,0,0,0,-0.1441,-0.145,-0.1488,-0.1483,-0.1492,-0.1528,-0.1536,-0.1558,-0.1581,-0.159,-0.1616,-0.1637,-0.1651,-0.166,-0.1674,-0.1671,-0.168,-0.1666,-0.1661,-0.1656,-0.1655,-0.1656,-0.165,-0.1707,-0.1707,-0.1707,0,0,-0.1418,-0.1443,-0.1446,-0.1474,-0.1492,-0.1501,-0.1535,-0.1542,-0.1549,-0.1592,-0.1599,-0.1618,-0.1645,-0.1647,-0.1649,-0.1662,-0.1642,-0.1654,-0.165,-0.1651,-0.1653,-0.1647,-0.1643,-0.1705,-0.1705,-0.1706,0,0,-0.1381,-0.14,-0.1399,-0.1417,-0.1444,-0.1468,-0.1467,-0.1502,-0.1516,-0.1524,-0.1556,-0.1566,-0.1588,-0.1606,-0.1619,-0.1588,-0.1613,-0.1592,-0.1565,-0.1565,-0.156,-0.1557,-0.1547,-0.1543,-0.1591,-0.159,-0.159,0,-0.1349,-0.1362,-0.1395,-0.1401,-0.1413,-0.1451,-0.1451,-0.1467,-0.1497,-0.1505,-0.1519,-0.1549,-0.157,-0.1576,-0.1569,-0.1577,-0.1579,-0.1589,-0.1558,-0.1555,-0.1552,-0.1543,-0.1539,-0.1588,-0.1588,-0.1588,-0.1589,0,-0.1322,-0.1331,-0.1327,-0.1356,-0.1367,-0.1369,-0.1404,-0.1411,-0.1432,-0.1455,-0.1463,-0.1489,-0.1511,-0.1514,-0.1535,-0.1524,-0.1531,-0.1551,-0.1575,-0.1543,-0.1536,-0.1532,-0.1584,-0.1585,-0.1586,-0.1586,0,0,-0.1255,-0.1302,-0.13,-0.1314,-0.1347,-0.1355,-0.136,-0.138,-0.1386,-0.1406,-0.1412,-0.143,-0.1449,-0.1463,-0.1486,-0.1486,-0.1462,-0.1506,-0.1508,-0.1498,-0.1452,-0.1438,-0.1433,-0.1478,-0.1477,-0.1477,-0.145,0,-0.1224,-0.1234,-0.1264,-0.1265,-0.1275,-0.1311,-0.1315,-0.1337,-0.1358,-0.1369,-0.1393,-0.1406,-0.1429,-0.1438,-0.1439,-0.1464,-0.1453,-0.1467,-0.1484,-0.1484,-0.1477,-0.1429,-0.1414,-0.1387,-0.1448,-0.1447,-0.1447,0,-0.1189,-0.1207,-0.1208,-0.1242,-0.1247,-0.125,-0.1272,-0.1282,-0.1307,-0.1322,-0.1338,-0.1364,-0.1372,-0.1394,-0.1406,-0.1414,-0.1423,-0.1437,-0.1437,-0.144,-0.1464,-0.1432,-0.138,-0.1376,-0.1442,-0.1442,-0.1443,0,-0.1141,-0.1165,-0.117,-0.118,-0.1219,-0.122,-0.1237,-0.1263,-0.1273,-0.1292,-0.13,-0.1319,-0.133,-0.1345,-0.1376,-0.1389,-0.1385,-0.141,-0.1399,-0.1398,-0.1397,-0.1397,-0.1346,-0.1401,-0.1401,-0.1401,-0.1401,0,-0.1104,-0.1104,-0.1149,-0.1151,-0.1153,-0.1188,-0.1188,-0.1208,-0.1231,-0.1239,-0.1272,-0.1279,-0.1319,-0.1331,-0.1355,-0.1362,-0.1366,-0.138,-0.1386,-0.1377,-0.1375,-0.1384,-0.1387,-0.14,-0.14,-0.1401,-0.1401,0,-0.1051,-0.108,-0.1088,-0.1124,-0.1133,-0.1132,-0.1164,-0.1168,-0.1191,-0.1201,-0.1205,-0.1242,-0.1257,-0.129,-0.1314,-0.1331,-0.1332,-0.1343,-0.1323,-0.1327,-0.1315,-0.1316,-0.1269,-0.1265,-0.1321,-0.1321,-0.132,0,-0.1025,-0.1026,-0.1062,-0.1069,-0.1084,-0.1096,-0.1107,-0.1141,-0.1151,-0.118,-0.1181,-0.1199,-0.1216,-0.1239,-0.1268,-0.1287,-0.13,-0.1282,-0.1303,-0.1294,-0.1301,-0.1301,-0.1301,-0.1277,-0.1277,-0.1276,-0.1275,0,-0.0977,-0.0992,-0.1006,-0.1025,-0.1037,-0.1054,-0.1073,-0.1078,-0.1116,-0.1126,-0.1142,-0.1155,-0.118,-0.1198,-0.1221,-0.1239,-0.1264,-0.1268,-0.1267,-0.1258,-0.1247,-0.1254,-0.1311,-0.127,-0.127,-0.1271,-0.1271,-0.1271,-0.0938,-0.0941,-0.0967,-0.0982,-0.0999,-0.1016,-0.1022,-0.1046,-0.1059,-0.1082,-0.1102,-0.1116,-0.1142,-0.1176,-0.1192,-0.1205,-0.1217,-0.1215,-0.1214,-0.1214,-0.121,-0.1244,-0.1209,-0.1209,-0.121,-0.121,-0.121,0,-0.0893,-0.0911,-0.0925,-0.095,-0.0961,-0.0983,-0.1005,-0.1013,-0.1025,-0.1047,-0.1062,-0.1081,-0.1099,-0.1129,-0.1149,-0.1154,-0.1166,-0.1158,-0.1158,-0.1162,-0.1198,-0.1197,-0.1148,-0.1148,-0.1148,-0.1148,-0.1148,-0.1148,-0.0871,-0.0877,-0.0895,-0.091,-0.0929,-0.0943,-0.0953,-0.0969,-0.0987,-0.1006,-0.1021,-0.104,-0.1066,-0.1088,-0.1105,-0.1114,-0.112,-0.1109,-0.1121,-0.1154,-0.116,-0.1165,-0.1165,-0.111,-0.111,-0.1085,-0.1085,-0.1085]},{"header":{"parameterUnit":"m.s-1","parameterCategory":1,"la1":30.2991,"la2":30.254,"lo1":-89.0895,"lo2":-89.0444,"dy":0.0017,"dx":0.0017,"nx":28,"ny":28,"refTime":"2025-06-13T09:00:00:Z","depth":0,"parameterNumber":3,"parameterNumberName":"V-component_of_WINDS"},"data":[0,0,0,0,0,0,0,0,0,0,0,0,0,0,0,0,0,0,0,0,0,0,0,0,0,0,0,0,0,0,0,0,0,0,0,0,0,0,0,0,0,0,0,0,0,0,0,0,0,0,0,0,0,0,0,0,0,0,3.5919,3.592,0,3.6033,3.6034,3.6036,3.6023,3.6021,3.6019,3.6018,3.6131,3.6135,3.614,0,0,0,0,0,0,0,0,0,0,0,0,0,3.5685,3.5689,3.5919,3.592,3.5922,3.6033,3.6035,3.6036,3.6023,3.6021,3.6019,3.6017,3.6129,3.6135,3.614,0,0,0,0,0,0,0,0,0,0,0,0,0,3.5791,3.5691,3.5918,3.5929,3.5931,3.6033,3.6035,3.6036,3.6024,3.6021,3.6018,3.6016,3.6127,3.6134,3.6141,3.6239,0,0,3.6163,3.6166,0,0,0,0,0,0,0,0,3.5785,3.58,3.5926,3.5928,3.5931,3.6011,3.5993,3.6104,3.6025,3.5988,3.6018,3.6015,3.6093,3.6103,3.613,3.6244,3.6249,3.6163,3.6168,3.6171,3.6173,0,0,0,0,0,0,0,3.5778,3.5795,3.5964,3.5928,3.5931,3.5926,3.5938,3.6014,3.6054,3.5991,3.5991,3.6005,3.6094,3.6123,3.6132,3.625,3.6163,3.6169,3.6174,3.6176,3.6448,3.6451,0,0,0,0,0,0,3.5769,3.5789,3.596,3.5967,3.585,3.5933,3.5946,3.5988,3.6053,3.6061,3.6007,3.6004,3.6112,3.6124,3.6136,3.6254,3.6171,3.6177,3.6181,3.6445,3.6449,3.6452,0,0,0,0,0,0,3.5764,3.5784,3.5956,3.5878,3.59,3.594,3.5987,3.5992,3.6021,3.6065,3.6072,3.603,3.6111,3.6126,3.6213,3.6257,3.618,3.6187,3.6442,3.6446,3.6451,3.6489,0,0,0,0,0,0,3.5757,3.5782,3.5821,3.5879,3.5904,3.6032,3.5989,3.5996,3.6034,3.6031,3.6089,3.6096,3.611,3.6203,3.622,3.6266,3.6192,3.6438,3.6444,3.6449,3.6484,3.6495,3.6504,0,0,0,0,0,3.5749,3.5827,3.5823,3.5844,3.5953,3.6035,3.6049,3.6065,3.6038,3.6076,3.6104,3.6094,3.625,3.6212,3.6231,3.6279,3.6435,3.6442,3.6449,3.648,3.6493,3.6503,0,0,0,0,0,0,3.5772,3.5835,3.5831,3.5931,3.5978,3.6033,3.6081,3.6078,3.6132,3.6127,3.6143,3.6157,3.6244,3.627,3.6227,3.6376,3.6339,3.635,3.6356,3.6368,3.6378,3.6369,3.6198,0,0,0,0,0,3.5789,3.5852,3.5902,3.5985,3.6009,3.6041,3.6078,3.6086,3.6134,3.6154,3.6188,3.6235,3.6294,3.6333,3.639,3.6488,3.65,3.6531,3.654,3.6548,3.6557,3.6609,3.6623,3.6474,3.6474,3.6474,0,0,3.5824,3.5866,3.5905,3.5991,3.6028,3.6091,3.6058,3.6126,3.6172,3.6164,3.6248,3.6275,3.6327,3.642,3.6462,3.6445,3.6601,3.6557,3.6563,3.6567,3.6618,3.6632,3.6644,3.6479,3.6478,3.6477,0,0,3.592,3.5959,3.6032,3.607,3.6127,3.6148,3.6165,3.6221,3.6239,3.6324,3.6318,3.6372,3.6475,3.6512,3.6544,3.6653,3.6645,3.6671,3.6721,3.6772,3.6784,3.6794,3.6832,3.6845,3.668,3.6681,3.6681,0,3.5957,3.6052,3.6069,3.6138,3.6175,3.6172,3.6244,3.628,3.6352,3.6377,3.6357,3.6484,3.652,3.662,3.6647,3.6674,3.6693,3.6665,3.6781,3.6792,3.6802,3.6837,3.6852,3.6683,3.6683,3.6683,3.6682,0,3.6093,3.6159,3.6211,3.6282,3.6325,3.6395,3.6421,3.6463,3.6467,3.6489,3.6575,3.6617,3.6682,3.6707,3.6711,3.6808,3.6795,3.6778,3.674,3.6818,3.6852,3.6866,3.6687,3.6686,3.6685,3.6685,0,0,3.6207,3.6287,3.6305,3.6336,3.6399,3.645,3.6519,3.6583,3.6618,3.6667,3.6725,3.6811,3.6795,3.6832,3.6841,3.6885,3.6967,3.6863,3.6864,3.6879,3.7074,3.7086,3.7101,3.6963,3.6965,3.6968,3.7069,0,3.6309,3.6433,3.6449,3.6558,3.6619,3.6615,3.6675,3.6719,3.6742,3.6795,3.6819,3.6879,3.6855,3.6877,3.6921,3.6948,3.7006,3.6941,3.7014,3.7017,3.7,3.7119,3.7132,3.7226,3.7082,3.7085,3.7086,0,3.6444,3.6498,3.6613,3.6666,3.6692,3.6746,3.6805,3.6857,3.6905,3.6918,3.6959,3.6962,3.7032,3.6992,3.7087,3.7042,3.7073,3.709,3.7094,3.7101,3.7055,3.7128,3.7256,3.727,3.7108,3.7106,3.7104,0,3.6513,3.6615,3.6697,3.6724,3.6788,3.6826,3.6854,3.69,3.6937,3.6989,3.7013,3.7072,3.7104,3.7149,3.7166,3.7136,3.726,3.7222,3.7271,3.7271,3.7297,3.7295,3.7431,3.7319,3.7318,3.7318,3.7318,0,3.6624,3.6694,3.6729,3.6779,3.6857,3.6875,3.6951,3.6977,3.7018,3.7072,3.7073,3.7123,3.7144,3.7197,3.7212,3.7287,3.7302,3.7313,3.7316,3.7313,3.7311,3.7332,3.7326,3.7322,3.7321,3.732,3.732,0,3.6715,3.6742,3.683,3.6884,3.6898,3.6953,3.6998,3.7046,3.7067,3.7136,3.7152,3.7186,3.7249,3.7271,3.7347,3.7356,3.7444,3.7441,3.7427,3.7428,3.7475,3.747,3.7629,3.765,3.7525,3.7526,3.7527,0,3.6784,3.6838,3.6897,3.6933,3.6963,3.7022,3.706,3.7079,3.7119,3.7178,3.7218,3.728,3.7331,3.743,3.7461,3.7518,3.7517,3.7568,3.7525,3.752,3.7516,3.7512,3.7516,3.7576,3.7577,3.7578,3.7579,0,3.6902,3.6912,3.6968,3.7028,3.7073,3.7121,3.7167,3.7197,3.7223,3.7266,3.7331,3.737,3.7448,3.7509,3.7568,3.7595,3.7591,3.7593,3.7607,3.7603,3.7593,3.7598,3.7448,3.7589,3.7588,3.7587,3.7586,3.7586,3.6983,3.703,3.7079,3.714,3.7177,3.722,3.7267,3.7295,3.7349,3.7415,3.7422,3.7491,3.7536,3.7615,3.7645,3.7698,3.7683,3.7704,3.7709,3.7714,3.7717,3.7585,3.7709,3.7708,3.7708,3.7708,3.7708,0,3.71,3.7131,3.7187,3.7252,3.73,3.7294,3.7344,3.7384,3.7445,3.7489,3.7539,3.7612,3.7671,3.7706,3.7764,3.78,3.7799,3.7814,3.7811,3.7817,3.7727,3.7708,3.7814,3.7814,3.7814,3.7814,3.7814,3.7814,3.7166,3.7246,3.7261,3.7358,3.7388,3.7456,3.7485,3.7524,3.7559,3.7641,3.7691,3.7713,3.7753,3.7814,3.7868,3.7876,3.7897,3.7913,3.792,3.7835,3.7824,3.7814,3.7796,3.7918,3.7918,3.8006,3.8007,3.8008]}]]